Time,TemperatureF,DewpointF,PressureIn,WindDirection,WindDirectionDegrees,WindSpeedMPH,WindSpeedGustMPH,Humidity,HourlyPrecipIn,Conditions,Clouds,dailyrainin,SoftwareType,DateUTC
2013-06-20 00:01:00,86.0,28.4,29.85,WNW,293,4.7,7.6,13,0.00,,,0.00,WUHU216HW,2013-06-20 07:01:00,
2013-06-20 00:06:00,86.0,28.4,29.84,NW,315,3.4,6.9,13,0.00,,,0.00,WUHU216HW,2013-06-20 07:06:00,
2013-06-20 00:11:00,85.9,28.2,29.85,NNW,338,6.9,7.4,13,0.00,,,0.00,WUHU216HW,2013-06-20 07:11:00,
2013-06-20 00:16:00,85.7,28.1,29.85,NW,315,6.0,7.4,13,0.00,,,0.00,WUHU216HW,2013-06-20 07:16:00,
2013-06-20 00:21:00,85.7,28.1,29.85,NW,315,4.0,6.5,13,0.00,,,0.00,WUHU216HW,2013-06-20 07:21:00,
2013-06-20 00:26:00,85.3,27.8,29.85,NNW,338,3.4,5.4,13,0.00,,,0.00,WUHU216HW,2013-06-20 07:26:00,
2013-06-20 00:31:00,85.1,29.3,29.85,NW,315,3.1,5.4,14,0.00,,,0.00,WUHU216HW,2013-06-20 07:31:00,
2013-06-20 00:36:00,84.8,30.8,29.85,North,0,2.2,4.5,15,0.00,,,0.00,WUHU216HW,2013-06-20 07:36:00,
2013-06-20 00:41:00,84.6,30.6,29.85,NNW,338,2.5,4.5,15,0.00,,,0.00,WUHU216HW,2013-06-20 07:41:00,
2013-06-20 00:46:00,84.6,30.6,29.85,North,0,2.9,4.5,15,0.00,,,0.00,WUHU216HW,2013-06-20 07:46:00,
2013-06-20 00:51:00,84.6,30.6,29.85,NNW,338,3.6,6.5,15,0.00,,,0.00,WUHU216HW,2013-06-20 07:51:00,
2013-06-20 00:56:00,84.6,30.6,29.85,NNW,338,0.9,6.5,15,0.00,,,0.00,WUHU216HW,2013-06-20 07:56:00,
2013-06-20 01:01:00,84.2,30.3,29.85,NNW,338,2.2,4.3,15,0.00,,,0.00,WUHU216HW,2013-06-20 08:01:00,
2013-06-20 01:06:00,83.9,30.1,29.84,NW,315,1.8,3.1,15,0.00,,,0.00,WUHU216HW,2013-06-20 08:06:00,
2013-06-20 01:11:00,83.7,30.0,29.84,NNW,338,0.9,3.4,15,0.00,,,0.00,WUHU216HW,2013-06-20 08:11:00,
2013-06-20 01:16:00,83.5,29.8,29.83,NW,315,2.2,3.4,15,0.00,,,0.00,WUHU216HW,2013-06-20 08:16:00,
2013-06-20 01:21:00,83.3,29.6,29.83,NNE,23,1.8,2.9,15,0.00,,,0.00,WUHU216HW,2013-06-20 08:21:00,
2013-06-20 01:26:00,83.2,29.5,29.83,NNW,338,1.1,2.9,15,0.00,,,0.00,WUHU216HW,2013-06-20 08:26:00,
2013-06-20 01:31:00,82.8,31.0,29.83,NNW,338,1.1,2.5,16,0.00,,,0.00,WUHU216HW,2013-06-20 08:31:00,
2013-06-20 01:36:00,82.8,31.0,29.83,North,0,0.4,1.8,16,0.00,,,0.00,WUHU216HW,2013-06-20 08:36:00,
2013-06-20 01:41:00,82.6,30.8,29.84,SW,225,1.3,1.6,16,0.00,,,0.00,WUHU216HW,2013-06-20 08:41:00,
2013-06-20 01:46:00,82.3,30.5,29.84,ESE,113,1.8,2.5,16,0.00,,,0.00,WUHU216HW,2013-06-20 08:46:00,
2013-06-20 01:51:00,81.5,30.0,29.83,SE,135,4.0,4.7,16,0.00,,,0.00,WUHU216HW,2013-06-20 08:51:00,
2013-06-20 01:56:00,81.0,29.5,29.84,ENE,68,2.9,5.1,16,0.00,,,0.00,WUHU216HW,2013-06-20 08:56:00,
2013-06-20 02:01:00,80.3,28.9,29.84,East,90,3.8,5.4,16,0.00,,,0.00,WUHU216HW,2013-06-20 09:01:00,
2013-06-20 02:06:00,79.9,28.6,29.84,ESE,113,2.9,5.4,16,0.00,,,0.00,WUHU216HW,2013-06-20 09:06:00,
2013-06-20 02:11:00,79.4,28.2,29.84,East,90,4.5,4.9,16,0.00,,,0.00,WUHU216HW,2013-06-20 09:11:00,
2013-06-20 02:16:00,79.0,27.8,29.84,ENE,68,4.0,4.7,16,0.00,,,0.00,WUHU216HW,2013-06-20 09:16:00,
2013-06-20 02:21:00,78.7,29.3,29.84,ESE,113,5.1,5.8,17,0.00,,,0.00,WUHU216HW,2013-06-20 09:21:00,
2013-06-20 02:26:00,78.3,29.0,29.84,East,90,3.4,6.3,17,0.00,,,0.00,WUHU216HW,2013-06-20 09:26:00,
2013-06-20 02:31:00,78.1,28.8,29.84,East,90,5.4,6.9,17,0.00,,,0.00,WUHU216HW,2013-06-20 09:31:00,
2013-06-20 02:36:00,77.9,28.6,29.84,East,90,5.4,6.9,17,0.00,,,0.00,WUHU216HW,2013-06-20 09:36:00,
2013-06-20 02:41:00,77.6,28.4,29.84,ESE,113,4.7,6.9,17,0.00,,,0.00,WUHU216HW,2013-06-20 09:41:00,
2013-06-20 02:46:00,77.4,28.3,29.84,ESE,113,3.8,6.9,17,0.00,,,0.00,WUHU216HW,2013-06-20 09:46:00,
2013-06-20 02:51:00,77.2,29.8,29.85,East,90,6.7,6.7,18,0.00,,,0.00,WUHU216HW,2013-06-20 09:51:00,
2013-06-20 02:56:00,77.2,29.8,29.85,East,90,4.5,8.5,18,0.00,,,0.00,WUHU216HW,2013-06-20 09:56:00,
2013-06-20 03:01:00,77.0,29.6,29.85,East,90,6.9,8.5,18,0.00,,,0.00,WUHU216HW,2013-06-20 10:01:00,
2013-06-20 03:06:00,77.2,29.8,29.85,East,90,4.5,7.6,18,0.00,,,0.00,WUHU216HW,2013-06-20 10:06:00,
2013-06-20 03:11:00,77.2,29.8,29.84,East,90,4.7,7.2,18,0.00,,,0.00,WUHU216HW,2013-06-20 10:11:00,
2013-06-20 03:16:00,77.2,29.8,29.84,ENE,68,5.1,7.6,18,0.00,,,0.00,WUHU216HW,2013-06-20 10:16:00,
2013-06-20 03:21:00,77.2,29.8,29.84,SE,135,4.5,7.8,18,0.00,,,0.00,WUHU216HW,2013-06-20 10:21:00,
2013-06-20 03:26:00,77.0,29.6,29.85,ESE,113,6.5,9.2,18,0.00,,,0.00,WUHU216HW,2013-06-20 10:26:00,
2013-06-20 03:31:00,76.9,31.1,29.84,SE,135,7.4,9.2,19,0.00,,,0.00,WUHU216HW,2013-06-20 10:31:00,
2013-06-20 03:36:00,76.9,31.1,29.85,ESE,113,8.3,9.4,19,0.00,,,0.00,WUHU216HW,2013-06-20 10:36:00,
2013-06-20 03:41:00,76.9,31.1,29.84,ESE,113,7.2,9.4,19,0.00,,,0.00,WUHU216HW,2013-06-20 10:41:00,
2013-06-20 03:46:00,76.9,31.1,29.85,ESE,113,8.1,9.4,19,0.00,,,0.00,WUHU216HW,2013-06-20 10:46:00,
2013-06-20 03:51:00,76.9,31.1,29.85,ESE,113,8.3,9.8,19,0.00,,,0.00,WUHU216HW,2013-06-20 10:51:00,
2013-06-20 03:56:00,76.9,31.1,29.85,East,90,6.0,9.8,19,0.00,,,0.00,WUHU216HW,2013-06-20 10:56:00,
2013-06-20 04:01:00,76.9,31.1,29.85,East,90,8.3,9.2,19,0.00,,,0.00,WUHU216HW,2013-06-20 11:01:00,
2013-06-20 04:06:00,76.9,31.1,29.85,ESE,113,6.7,9.8,19,0.00,,,0.00,WUHU216HW,2013-06-20 11:06:00,
2013-06-20 04:11:00,76.9,31.1,29.85,East,90,4.9,9.8,19,0.00,,,0.00,WUHU216HW,2013-06-20 11:11:00,
2013-06-20 04:16:00,76.9,31.1,29.85,SE,135,3.6,9.8,19,0.00,,,0.00,WUHU216HW,2013-06-20 11:16:00,
2013-06-20 04:21:00,76.5,30.9,29.85,ESE,113,6.9,8.3,19,0.00,,,0.00,WUHU216HW,2013-06-20 11:21:00,
2013-06-20 04:26:00,76.1,30.6,29.85,SE,135,4.0,8.3,19,0.00,,,0.00,WUHU216HW,2013-06-20 11:26:00,
2013-06-20 04:31:00,75.8,30.2,29.84,East,90,4.7,7.6,19,0.00,,,0.00,WUHU216HW,2013-06-20 11:31:00,
2013-06-20 04:36:00,75.6,30.2,29.84,East,90,6.7,7.6,19,0.00,,,0.00,WUHU216HW,2013-06-20 11:36:00,
2013-06-20 04:41:00,75.6,30.2,29.84,East,90,5.1,7.6,19,0.00,,,0.00,WUHU216HW,2013-06-20 11:41:00,
2013-06-20 04:46:00,75.6,30.2,29.84,ESE,113,3.6,7.6,19,0.00,,,0.00,WUHU216HW,2013-06-20 11:46:00,
2013-06-20 04:52:00,75.4,30.0,29.85,East,90,7.4,7.4,19,0.00,,,0.00,WUHU216HW,2013-06-20 11:52:00,
2013-06-20 04:57:00,75.2,29.9,29.85,SE,135,7.6,10.5,19,0.00,,,0.00,WUHU216HW,2013-06-20 11:57:00,
2013-06-20 05:02:00,75.2,29.9,29.85,SE,135,8.1,10.7,19,0.00,,,0.00,WUHU216HW,2013-06-20 12:02:00,
2013-06-20 05:07:00,75.2,29.9,29.85,East,90,4.7,10.7,19,0.00,,,0.00,WUHU216HW,2013-06-20 12:07:00,
2013-06-20 05:12:00,75.2,29.9,29.85,ENE,68,6.9,8.3,19,0.00,,,0.00,WUHU216HW,2013-06-20 12:12:00,
2013-06-20 05:17:00,75.4,30.0,29.85,East,90,6.3,8.1,19,0.00,,,0.00,WUHU216HW,2013-06-20 12:17:00,
2013-06-20 05:22:00,75.6,30.2,29.86,ESE,113,5.4,10.3,19,0.00,,,0.00,WUHU216HW,2013-06-20 12:22:00,
2013-06-20 05:27:00,75.4,30.0,29.86,SE,135,5.8,10.3,19,0.00,,,0.00,WUHU216HW,2013-06-20 12:27:00,
2013-06-20 05:32:00,75.4,30.0,29.86,SE,135,5.8,10.3,19,0.00,,,0.00,WUHU216HW,2013-06-20 12:32:00,
2013-06-20 05:37:00,75.2,29.9,29.86,East,90,6.3,8.7,19,0.00,,,0.00,WUHU216HW,2013-06-20 12:37:00,
2013-06-20 05:42:00,75.2,29.9,29.86,ESE,113,7.6,10.5,19,0.00,,,0.00,WUHU216HW,2013-06-20 12:42:00,
2013-06-20 05:47:00,75.2,29.9,29.87,ESE,113,6.7,10.5,19,0.00,,,0.00,WUHU216HW,2013-06-20 12:47:00,
2013-06-20 05:52:00,75.4,30.0,29.87,ESE,113,8.3,10.5,19,0.00,,,0.00,WUHU216HW,2013-06-20 12:52:00,
2013-06-20 05:57:00,75.6,30.2,29.87,East,90,7.4,10.5,19,0.00,,,0.00,WUHU216HW,2013-06-20 12:57:00,
2013-06-20 06:02:00,75.6,30.2,29.87,East,90,6.5,9.8,19,0.00,,,0.00,WUHU216HW,2013-06-20 13:02:00,
2013-06-20 06:07:00,75.8,30.2,29.87,ESE,113,6.3,10.1,19,0.00,,,0.00,WUHU216HW,2013-06-20 13:07:00,
2013-06-20 06:12:00,75.8,30.2,29.88,ESE,113,6.3,10.1,19,0.00,,,0.00,WUHU216HW,2013-06-20 13:12:00,
2013-06-20 06:17:00,75.8,30.2,29.88,East,90,4.9,8.9,19,0.00,,,0.00,WUHU216HW,2013-06-20 13:17:00,
2013-06-20 06:22:00,75.8,30.2,29.88,East,90,6.3,8.3,19,0.00,,,0.00,WUHU216HW,2013-06-20 13:22:00,
2013-06-20 06:27:00,76.0,30.4,29.88,ESE,113,4.7,8.3,19,0.00,,,0.00,WUHU216HW,2013-06-20 13:27:00,
2013-06-20 06:32:00,76.1,30.6,29.88,ESE,113,6.5,8.1,19,0.00,,,0.00,WUHU216HW,2013-06-20 13:32:00,
2013-06-20 06:37:00,76.3,29.1,29.88,ESE,113,5.4,8.3,18,0.00,,,0.00,WUHU216HW,2013-06-20 13:37:00,
2013-06-20 06:42:00,76.5,29.2,29.88,ESE,113,4.9,8.3,18,0.00,,,0.00,WUHU216HW,2013-06-20 13:42:00,
2013-06-20 06:47:00,76.7,29.3,29.89,ENE,68,5.1,6.9,18,0.00,,,0.00,WUHU216HW,2013-06-20 13:47:00,
2013-06-20 06:52:00,77.0,29.6,29.89,ESE,113,5.1,7.2,18,0.00,,,0.00,WUHU216HW,2013-06-20 13:52:00,
2013-06-20 06:57:00,77.0,29.6,29.89,SE,135,5.4,8.7,18,0.00,,,0.00,WUHU216HW,2013-06-20 13:57:00,
2013-06-20 07:02:00,77.4,29.9,29.90,ESE,113,5.8,8.7,18,0.00,,,0.00,WUHU216HW,2013-06-20 14:02:00,
2013-06-20 07:07:00,77.6,30.1,29.90,ESE,113,4.9,8.1,18,0.00,,,0.00,WUHU216HW,2013-06-20 14:07:00,
2013-06-20 07:12:00,77.8,30.2,29.90,ESE,113,5.4,7.6,18,0.00,,,0.00,WUHU216HW,2013-06-20 14:12:00,
2013-06-20 07:17:00,78.1,30.5,29.90,SSE,158,2.2,7.6,18,0.00,,,0.00,WUHU216HW,2013-06-20 14:17:00,
2013-06-20 07:22:00,78.3,30.6,29.90,ESE,113,5.1,6.9,18,0.00,,,0.00,WUHU216HW,2013-06-20 14:22:00,
2013-06-20 07:27:00,78.3,30.6,29.90,SE,135,4.9,6.9,18,0.00,,,0.00,WUHU216HW,2013-06-20 14:27:00,
2013-06-20 07:32:00,78.5,30.8,29.90,South,180,6.3,7.2,18,0.00,,,0.00,WUHU216HW,2013-06-20 14:32:00,
2013-06-20 07:37:00,78.8,31.1,29.90,ESE,113,7.2,7.8,18,0.00,,,0.00,WUHU216HW,2013-06-20 14:37:00,
2013-06-20 07:42:00,79.0,31.2,29.89,SSE,158,7.2,7.8,18,0.00,,,0.00,WUHU216HW,2013-06-20 14:42:00,
2013-06-20 07:47:00,79.2,31.3,29.89,South,180,4.0,7.6,18,0.00,,,0.00,WUHU216HW,2013-06-20 14:47:00,
2013-06-20 07:52:00,79.6,30.0,29.89,SSW,203,2.7,7.6,17,0.00,,,0.00,WUHU216HW,2013-06-20 14:52:00,
2013-06-20 07:57:00,79.7,30.2,29.89,SSE,158,4.0,6.9,17,0.00,,,0.00,WUHU216HW,2013-06-20 14:57:00,
2013-06-20 08:02:00,80.1,30.4,29.90,ESE,113,4.0,6.9,17,0.00,,,0.00,WUHU216HW,2013-06-20 15:02:00,
2013-06-20 08:07:00,80.3,30.6,29.90,SSE,158,3.8,6.7,17,0.00,,,0.00,WUHU216HW,2013-06-20 15:07:00,
2013-06-20 08:12:00,80.5,30.8,29.90,SE,135,2.9,6.9,17,0.00,,,0.00,WUHU216HW,2013-06-20 15:12:00,
2013-06-20 08:17:00,80.6,29.3,29.90,ESE,113,2.7,6.9,16,0.00,,,0.00,WUHU216HW,2013-06-20 15:17:00,
2013-06-20 08:22:00,81.0,29.5,29.91,SE,135,4.9,7.6,16,0.00,,,0.00,WUHU216HW,2013-06-20 15:22:00,
2013-06-20 08:27:00,81.4,29.8,29.91,SSW,203,3.6,8.1,16,0.00,,,0.00,WUHU216HW,2013-06-20 15:27:00,
2013-06-20 08:32:00,81.7,30.1,29.90,SE,135,7.2,8.1,16,0.00,,,0.00,WUHU216HW,2013-06-20 15:32:00,
2013-06-20 08:37:00,82.1,30.4,29.91,SE,135,5.4,7.8,16,0.00,,,0.00,WUHU216HW,2013-06-20 15:37:00,
2013-06-20 08:42:00,82.4,30.7,29.91,East,90,4.7,8.5,16,0.00,,,0.00,WUHU216HW,2013-06-20 15:42:00,
2013-06-20 08:47:00,82.8,31.0,29.91,ESE,113,5.8,8.5,16,0.00,,,0.00,WUHU216HW,2013-06-20 15:47:00,
2013-06-20 08:52:00,83.2,31.2,29.91,SSE,158,4.3,7.6,16,0.00,,,0.00,WUHU216HW,2013-06-20 15:52:00,
2013-06-20 08:57:00,83.7,30.0,29.91,SE,135,3.4,7.6,15,0.00,,,0.00,WUHU216HW,2013-06-20 15:57:00,
2013-06-20 09:02:00,84.2,30.3,29.91,ESE,113,5.8,8.3,15,0.00,,,0.00,WUHU216HW,2013-06-20 16:02:00,
2013-06-20 09:07:00,84.6,30.6,29.91,ESE,113,3.8,9.2,15,0.00,,,0.00,WUHU216HW,2013-06-20 16:07:00,
2013-06-20 09:12:00,84.8,30.8,29.90,SE,135,4.0,9.2,15,0.00,,,0.00,WUHU216HW,2013-06-20 16:12:00,
2013-06-20 09:17:00,85.0,27.5,29.90,South,180,6.3,9.2,13,0.00,,,0.00,WUHU216HW,2013-06-20 16:17:00,
2013-06-20 09:22:00,85.5,27.9,29.89,ESE,113,6.5,7.4,13,0.00,,,0.00,WUHU216HW,2013-06-20 16:22:00,
2013-06-20 09:27:00,85.9,28.2,29.89,SSE,158,5.4,8.5,13,0.00,,,0.00,WUHU216HW,2013-06-20 16:27:00,
2013-06-20 09:32:00,86.4,26.9,29.89,SSE,158,3.4,8.5,12,0.00,,,0.00,WUHU216HW,2013-06-20 16:32:00,
2013-06-20 09:37:00,86.9,27.4,29.89,SE,135,4.9,7.6,12,0.00,,,0.00,WUHU216HW,2013-06-20 16:37:00,
2013-06-20 09:42:00,87.3,27.6,29.90,SSE,158,4.5,8.1,12,0.00,,,0.00,WUHU216HW,2013-06-20 16:42:00,
2013-06-20 09:47:00,87.8,26.4,29.90,SE,135,6.3,9.4,11,0.00,,,0.00,WUHU216HW,2013-06-20 16:47:00,
2013-06-20 09:52:00,88.2,26.6,29.90,SW,225,2.7,9.4,11,0.00,,,0.00,WUHU216HW,2013-06-20 16:52:00,
2013-06-20 09:57:00,88.6,26.9,29.90,SSE,158,3.1,6.9,11,0.00,,,0.00,WUHU216HW,2013-06-20 16:57:00,
2013-06-20 10:02:00,88.7,25.3,29.90,ENE,68,4.7,6.9,10,0.00,,,0.00,WUHU216HW,2013-06-20 17:02:00,
2013-06-20 10:07:00,89.5,25.8,29.91,SE,135,1.8,8.3,8,0.00,,,0.00,WUHU216HW,2013-06-20 17:07:00,
2013-06-20 10:12:00,89.6,25.9,29.91,ESE,113,4.3,8.3,8,0.00,,,0.00,WUHU216HW,2013-06-20 17:12:00,
2013-06-20 10:17:00,90.2,26.4,29.91,South,180,4.7,6.3,8,0.00,,,0.00,WUHU216HW,2013-06-20 17:17:00,
2013-06-20 10:22:00,90.2,26.4,29.91,SSW,203,6.3,9.4,8,0.00,,,0.00,WUHU216HW,2013-06-20 17:22:00,
2013-06-20 10:27:00,90.2,26.4,29.91,SW,225,6.0,9.4,8,0.00,,,0.00,WUHU216HW,2013-06-20 17:27:00,
2013-06-20 10:32:00,90.7,26.8,29.91,SSE,158,2.5,8.5,7,0.00,,,0.00,WUHU216HW,2013-06-20 17:32:00,
2013-06-20 10:37:00,91.6,27.5,29.90,South,180,3.4,9.2,7,0.00,,,0.00,WUHU216HW,2013-06-20 17:37:00,
2013-06-20 10:42:00,94.0,29.2,29.90,SSW,203,4.7,9.2,7,0.00,,,0.00,WUHU216HW,2013-06-20 17:42:00,
2013-06-20 10:47:00,95.8,30.6,29.89,SE,135,4.7,6.9,7,0.00,,,0.00,WUHU216HW,2013-06-20 17:47:00,
2013-06-20 10:52:00,98.1,32.3,29.89,SE,135,6.7,7.2,7,0.00,,,0.00,WUHU216HW,2013-06-20 17:52:00,
2013-06-20 10:57:00,99.4,33.3,29.90,SSE,158,6.9,8.5,6,0.00,,,0.00,WUHU216HW,2013-06-20 17:57:00,
2013-06-20 11:02:00,99.5,33.5,29.90,SSW,203,4.9,8.5,6,0.00,,,0.00,WUHU216HW,2013-06-20 18:02:00,
2013-06-20 11:07:00,99.7,33.7,29.90,South,180,5.1,9.2,5,0.00,,,0.00,WUHU216HW,2013-06-20 18:07:00,
2013-06-20 11:12:00,99.7,33.7,29.90,SSE,158,6.7,9.2,5,0.00,,,0.00,WUHU216HW,2013-06-20 18:12:00,
2013-06-20 11:17:00,98.3,32.5,29.90,SSW,203,7.6,9.4,5,0.00,,,0.00,WUHU216HW,2013-06-20 18:17:00,
2013-06-20 11:22:00,97.9,32.2,29.90,SE,135,6.3,9.4,5,0.00,,,0.00,WUHU216HW,2013-06-20 18:22:00,
2013-06-20 11:27:00,99.0,33.0,29.90,ESE,113,4.7,8.1,5,0.00,,,0.00,WUHU216HW,2013-06-20 18:27:00,
2013-06-20 11:32:00,100.4,34.2,29.90,NE,45,1.8,8.1,5,0.00,,,0.00,WUHU216HW,2013-06-20 18:32:00,
2013-06-20 11:37:00,100.4,34.2,29.90,ESE,113,4.9,7.4,5,0.00,,,0.00,WUHU216HW,2013-06-20 18:37:00,
2013-06-20 11:42:00,100.8,34.5,29.90,SSW,203,4.0,6.9,5,0.00,,,0.00,WUHU216HW,2013-06-20 18:42:00,
2013-06-20 11:47:00,100.8,34.5,29.89,SSW,203,5.1,6.9,5,0.00,,,0.00,WUHU216HW,2013-06-20 18:47:00,
2013-06-20 11:52:00,100.8,34.5,29.88,SE,135,6.3,6.7,5,0.00,,,0.00,WUHU216HW,2013-06-20 18:52:00,
2013-06-20 11:57:00,101.0,34.6,29.88,SSW,203,6.9,9.6,5,0.00,,,0.00,WUHU216HW,2013-06-20 18:57:00,
2013-06-20 12:02:00,100.1,33.9,29.88,SE,135,1.8,9.6,5,0.00,,,0.00,WUHU216HW,2013-06-20 19:02:00,
2013-06-20 12:07:00,99.5,33.5,29.88,SSW,203,4.0,9.6,5,0.00,,,0.00,WUHU216HW,2013-06-20 19:07:00,
2013-06-20 12:12:00,99.5,33.5,29.88,WNW,293,5.4,8.5,5,0.00,,,0.00,WUHU216HW,2013-06-20 19:12:00,
2013-06-20 12:17:00,99.0,33.0,29.89,NW,315,3.6,8.5,5,0.00,,,0.00,WUHU216HW,2013-06-20 19:17:00,
2013-06-20 12:22:00,98.6,32.8,29.89,East,90,2.0,5.6,5,0.00,,,0.00,WUHU216HW,2013-06-20 19:22:00,
2013-06-20 12:27:00,99.7,33.7,29.89,SSE,158,4.3,7.6,5,0.00,,,0.00,WUHU216HW,2013-06-20 19:27:00,
2013-06-20 12:32:00,101.2,34.8,29.89,SW,225,2.5,7.6,5,0.00,,,0.00,WUHU216HW,2013-06-20 19:32:00,
2013-06-20 12:37:00,101.7,35.1,29.89,WSW,248,1.8,4.7,5,0.00,,,0.00,WUHU216HW,2013-06-20 19:37:00,
2013-06-20 12:42:00,101.9,35.2,29.89,SE,135,4.3,7.6,5,0.00,,,0.00,WUHU216HW,2013-06-20 19:42:00,
2013-06-20 12:47:00,103.3,36.4,29.89,ESE,113,3.4,8.1,5,0.00,,,0.00,WUHU216HW,2013-06-20 19:47:00,
2013-06-20 12:52:00,104.6,37.3,29.89,ESE,113,6.9,10.1,3,0.00,,,0.00,WUHU216HW,2013-06-20 19:52:00,
2013-06-20 12:57:00,105.5,37.9,29.89,NNE,23,3.1,10.1,3,0.00,,,0.00,WUHU216HW,2013-06-20 19:57:00,
2013-06-20 13:02:00,105.3,37.8,29.88,SSW,203,3.4,6.9,3,0.00,,,0.00,WUHU216HW,2013-06-20 20:02:00,
2013-06-20 13:07:00,105.5,37.9,29.88,ENE,68,2.2,4.0,3,0.00,,,0.00,WUHU216HW,2013-06-20 20:07:00,
2013-06-20 13:12:00,105.1,37.6,29.87,NNE,23,3.4,4.0,3,0.00,,,0.00,WUHU216HW,2013-06-20 20:12:00,
2013-06-20 13:17:00,104.6,37.3,29.86,SSW,203,5.1,6.3,3,0.00,,,0.00,WUHU216HW,2013-06-20 20:17:00,
2013-06-20 13:22:00,105.7,38.1,29.86,SSW,203,1.1,6.7,3,0.00,,,0.00,WUHU216HW,2013-06-20 20:22:00,
2013-06-20 13:27:00,106.4,38.6,29.86,SSW,203,8.5,10.5,3,0.00,,,0.00,WUHU216HW,2013-06-20 20:27:00,
2013-06-20 13:32:00,105.7,38.1,29.86,WNW,293,4.0,13.2,3,0.00,,,0.00,WUHU216HW,2013-06-20 20:32:00,
2013-06-20 13:37:00,104.4,37.2,29.85,SW,225,3.6,13.2,3,0.00,,,0.00,WUHU216HW,2013-06-20 20:37:00,
2013-06-20 13:42:00,104.2,37.0,29.85,SW,225,2.2,9.8,3,0.00,,,0.00,WUHU216HW,2013-06-20 20:42:00,
2013-06-20 13:47:00,105.5,37.9,29.85,South,180,3.4,7.4,3,0.00,,,0.00,WUHU216HW,2013-06-20 20:47:00,
2013-06-20 13:52:00,106.6,38.7,29.86,SE,135,4.7,7.6,3,0.00,,,0.00,WUHU216HW,2013-06-20 20:52:00,
2013-06-20 13:57:00,107.6,39.6,29.86,SSE,158,5.6,7.6,3,0.00,,,0.00,WUHU216HW,2013-06-20 20:57:00,
2013-06-20 14:02:00,108.5,40.2,29.86,East,90,1.6,6.9,3,0.00,,,0.00,WUHU216HW,2013-06-20 21:02:00,
2013-06-20 14:07:00,108.9,40.5,29.86,ESE,113,4.7,6.0,2,0.00,,,0.00,WUHU216HW,2013-06-20 21:07:00,
2013-06-20 14:12:00,109.4,40.9,29.85,SSE,158,9.6,10.5,2,0.00,,,0.00,WUHU216HW,2013-06-20 21:12:00,
2013-06-20 14:17:00,109.4,40.9,29.85,SW,225,8.1,10.5,2,0.00,,,0.00,WUHU216HW,2013-06-20 21:17:00,
2013-06-20 14:22:00,109.1,40.6,29.85,SW,225,9.8,9.8,2,0.00,,,0.00,WUHU216HW,2013-06-20 21:22:00,
2013-06-20 14:27:00,108.5,40.2,29.85,SSW,203,8.7,10.7,2,0.00,,,0.00,WUHU216HW,2013-06-20 21:27:00,
2013-06-20 14:32:00,107.6,39.6,29.84,SSW,203,3.4,10.7,2,0.00,,,0.00,WUHU216HW,2013-06-20 21:32:00,
2013-06-20 14:37:00,107.1,39.2,29.83,WSW,248,11.9,17.9,2,0.00,,,0.00,WUHU216HW,2013-06-20 21:37:00,
2013-06-20 14:42:00,106.2,38.4,29.83,SW,225,15.4,17.9,2,0.00,,,0.00,WUHU216HW,2013-06-20 21:42:00,
2013-06-20 14:47:00,106.2,38.4,29.83,SSW,203,7.2,15.9,2,0.00,,,0.00,WUHU216HW,2013-06-20 21:47:00,
2013-06-20 14:52:00,106.6,38.7,29.83,SW,225,14.8,15.9,2,0.00,,,0.00,WUHU216HW,2013-06-20 21:52:00,
2013-06-20 14:57:00,106.4,38.6,29.83,SW,225,8.9,21.5,2,0.00,,,0.00,WUHU216HW,2013-06-20 21:57:00,
2013-06-20 15:02:00,107.5,39.4,29.83,SSW,203,9.6,21.5,2,0.00,,,0.00,WUHU216HW,2013-06-20 22:02:00,
2013-06-20 15:07:00,107.8,39.7,29.84,SSW,203,6.3,10.5,2,0.00,,,0.00,WUHU216HW,2013-06-20 22:07:00,
2013-06-20 15:12:00,107.6,39.6,29.84,SW,225,7.6,14.1,2,0.00,,,0.00,WUHU216HW,2013-06-20 22:12:00,
2013-06-20 15:17:00,107.3,39.3,29.84,West,270,9.8,14.1,2,0.00,,,0.00,WUHU216HW,2013-06-20 22:17:00,
2013-06-20 15:22:00,107.3,39.3,29.84,South,180,7.4,13.6,2,0.00,,,0.00,WUHU216HW,2013-06-20 22:22:00,
2013-06-20 15:27:00,106.6,38.7,29.85,SW,225,7.4,13.6,2,0.00,,,0.00,WUHU216HW,2013-06-20 22:27:00,
2013-06-20 15:32:00,106.0,38.4,29.84,WNW,293,9.6,12.5,2,0.00,,,0.00,WUHU216HW,2013-06-20 22:32:00,
2013-06-20 15:37:00,107.3,39.3,29.84,SSW,203,6.0,12.5,2,0.00,,,0.00,WUHU216HW,2013-06-20 22:37:00,
2013-06-20 15:42:00,107.8,39.7,29.83,WSW,248,8.5,13.2,1,0.00,,,0.00,WUHU216HW,2013-06-20 22:42:00,
2013-06-20 15:47:00,108.0,39.9,29.82,WSW,248,5.4,13.2,2,0.00,,,0.00,WUHU216HW,2013-06-20 22:47:00,
2013-06-20 15:52:00,108.0,39.9,29.82,West,270,7.4,11.4,2,0.00,,,0.00,WUHU216HW,2013-06-20 22:52:00,
2013-06-20 15:57:00,107.6,39.6,29.82,SW,225,11.6,17.2,2,0.00,,,0.00,WUHU216HW,2013-06-20 22:57:00,
2013-06-20 16:02:00,107.3,39.3,29.82,WSW,248,4.7,17.2,2,0.00,,,0.00,WUHU216HW,2013-06-20 23:02:00,
2013-06-20 16:07:00,107.8,39.7,29.81,SW,225,4.5,11.9,2,0.00,,,0.00,WUHU216HW,2013-06-20 23:07:00,
2013-06-20 16:12:00,108.9,40.5,29.82,SW,225,6.5,9.4,2,0.00,,,0.00,WUHU216HW,2013-06-20 23:12:00,
2013-06-20 16:17:00,109.3,40.8,29.82,South,180,5.8,9.8,2,0.00,,,0.00,WUHU216HW,2013-06-20 23:17:00,
2013-06-20 16:22:00,110.0,41.3,29.82,SE,135,3.4,9.8,2,0.00,,,0.00,WUHU216HW,2013-06-20 23:22:00,
2013-06-20 16:27:00,110.5,41.8,29.82,SW,225,8.5,9.8,1,0.00,,,0.00,WUHU216HW,2013-06-20 23:27:00,
2013-06-20 16:32:00,110.5,41.8,29.82,South,180,5.1,10.7,1,0.00,,,0.00,WUHU216HW,2013-06-20 23:32:00,
2013-06-20 16:37:00,110.0,41.3,29.82,SSW,203,6.7,15.4,1,0.00,,,0.00,WUHU216HW,2013-06-20 23:37:00,
2013-06-20 16:42:00,109.4,40.9,29.83,SW,225,7.6,15.4,1,0.00,,,0.00,WUHU216HW,2013-06-20 23:42:00,
2013-06-20 16:47:00,109.1,40.6,29.83,SE,135,4.7,9.6,2,0.00,,,0.00,WUHU216HW,2013-06-20 23:47:00,
2013-06-20 16:52:00,109.8,41.1,29.82,SW,225,8.3,8.9,1,0.00,,,0.00,WUHU216HW,2013-06-20 23:52:00,
2013-06-20 16:57:00,109.3,40.8,29.81,SSW,203,10.5,12.1,1,0.00,,,0.00,WUHU216HW,2013-06-20 23:57:00,
2013-06-20 17:02:00,109.4,40.9,29.81,South,180,12.3,13.9,1,0.00,,,0.00,WUHU216HW,2013-06-21 00:02:00,
2013-06-20 17:07:00,108.7,40.3,29.81,SW,225,4.3,13.9,1,0.00,,,0.00,WUHU216HW,2013-06-21 00:07:00,
2013-06-20 17:12:00,109.6,41.1,29.80,SSW,203,5.6,13.6,2,0.00,,,0.00,WUHU216HW,2013-06-21 00:12:00,
2013-06-20 17:17:00,109.3,40.8,29.80,WSW,248,6.5,13.4,1,0.00,,,0.00,WUHU216HW,2013-06-21 00:17:00,
2013-06-20 17:22:00,108.2,40.0,29.80,SW,225,7.8,13.4,1,0.00,,,0.00,WUHU216HW,2013-06-21 00:22:00,
2013-06-20 17:27:00,108.0,39.9,29.81,NW,315,7.4,12.8,2,0.00,,,0.00,WUHU216HW,2013-06-21 00:27:00,
2013-06-20 17:32:00,108.4,40.2,29.81,West,270,6.3,8.5,1,0.00,,,0.00,WUHU216HW,2013-06-21 00:32:00,
2013-06-20 17:37:00,109.1,40.6,29.81,SW,225,2.0,6.5,2,0.00,,,0.00,WUHU216HW,2013-06-21 00:37:00,
2013-06-20 17:42:00,109.6,41.1,29.81,SW,225,9.8,9.8,1,0.00,,,0.00,WUHU216HW,2013-06-21 00:42:00,
2013-06-20 17:47:00,108.7,40.3,29.82,WSW,248,9.6,11.2,1,0.00,,,0.00,WUHU216HW,2013-06-21 00:47:00,
2013-06-20 17:52:00,108.2,40.0,29.82,West,270,5.8,11.6,2,0.00,,,0.00,WUHU216HW,2013-06-21 00:52:00,
2013-06-20 17:57:00,108.4,40.2,29.82,SW,225,6.5,11.6,2,0.00,,,0.00,WUHU216HW,2013-06-21 00:57:00,
2013-06-20 18:02:00,109.1,40.6,29.82,West,270,4.0,7.2,2,0.00,,,0.00,WUHU216HW,2013-06-21 01:02:00,
2013-06-20 18:07:00,108.4,40.2,29.82,SSW,203,11.4,11.4,2,0.00,,,0.00,WUHU216HW,2013-06-21 01:07:00,
2013-06-20 18:12:00,107.6,39.6,29.82,WSW,248,10.1,11.4,2,0.00,,,0.00,WUHU216HW,2013-06-21 01:12:00,
2013-06-20 18:17:00,107.5,39.4,29.82,SW,225,8.1,11.4,2,0.00,,,0.00,WUHU216HW,2013-06-21 01:17:00,
2013-06-20 18:22:00,107.6,39.6,29.81,SW,225,4.7,11.4,2,0.00,,,0.00,WUHU216HW,2013-06-21 01:22:00,
2013-06-20 18:27:00,107.8,39.7,29.81,SW,225,8.1,9.8,2,0.00,,,0.00,WUHU216HW,2013-06-21 01:27:00,
2013-06-20 18:32:00,107.6,39.6,29.81,SW,225,4.0,9.8,2,0.00,,,0.00,WUHU216HW,2013-06-21 01:32:00,
2013-06-20 18:37:00,108.5,40.2,29.81,NW,315,5.6,8.7,2,0.00,,,0.00,WUHU216HW,2013-06-21 01:37:00,
2013-06-20 18:42:00,108.5,40.2,29.82,WSW,248,9.2,9.2,2,0.00,,,0.00,WUHU216HW,2013-06-21 01:42:00,
2013-06-20 18:47:00,106.9,39.1,29.82,SW,225,7.4,9.4,2,0.00,,,0.00,WUHU216HW,2013-06-21 01:47:00,
2013-06-20 18:52:00,106.2,38.4,29.83,SW,225,4.0,9.4,2,0.00,,,0.00,WUHU216HW,2013-06-21 01:52:00,
2013-06-20 18:57:00,106.7,38.9,29.83,WSW,248,3.1,7.4,2,0.00,,,0.00,WUHU216HW,2013-06-21 01:57:00,
2013-06-20 19:02:00,106.4,38.6,29.83,WSW,248,6.0,7.2,2,0.00,,,0.00,WUHU216HW,2013-06-21 02:02:00,
2013-06-20 19:07:00,105.7,38.1,29.83,West,270,4.3,7.2,2,0.00,,,0.00,WUHU216HW,2013-06-21 02:07:00,
2013-06-20 19:12:00,104.8,37.5,29.83,West,270,4.7,8.5,2,0.00,,,0.00,WUHU216HW,2013-06-21 02:12:00,
2013-06-20 19:17:00,103.0,36.0,29.83,West,270,8.5,9.8,3,0.00,,,0.00,WUHU216HW,2013-06-21 02:17:00,
2013-06-20 19:22:00,100.4,34.2,29.82,WNW,293,5.8,11.9,3,0.00,,,0.00,WUHU216HW,2013-06-21 02:22:00,
2013-06-20 19:27:00,98.8,33.0,29.82,WNW,293,4.7,11.9,3,0.00,,,0.00,WUHU216HW,2013-06-21 02:27:00,
2013-06-20 19:32:00,97.7,32.0,29.82,WSW,248,4.5,7.4,3,0.00,,,0.00,WUHU216HW,2013-06-21 02:32:00,
2013-06-20 19:37:00,97.0,31.5,29.82,WNW,293,4.7,6.9,5,0.00,,,0.00,WUHU216HW,2013-06-21 02:37:00,
2013-06-20 19:42:00,96.1,30.8,29.82,NW,315,6.7,8.5,5,0.00,,,0.00,WUHU216HW,2013-06-21 02:42:00,
2013-06-20 19:47:00,95.4,30.3,29.83,WNW,293,6.7,8.5,5,0.00,,,0.00,WUHU216HW,2013-06-21 02:47:00,
2013-06-20 19:52:00,95.0,30.1,29.83,WNW,293,4.0,7.6,5,0.00,,,0.00,WUHU216HW,2013-06-21 02:52:00,
2013-06-20 19:57:00,94.5,29.6,29.83,NW,315,3.1,7.2,5,0.00,,,0.00,WUHU216HW,2013-06-21 02:57:00,
2013-06-20 20:02:00,94.0,29.2,29.83,NW,315,4.0,6.3,5,0.00,,,0.00,WUHU216HW,2013-06-21 03:02:00,
2013-06-20 20:07:00,93.4,28.8,29.84,WSW,248,2.5,6.3,5,0.00,,,0.00,WUHU216HW,2013-06-21 03:07:00,
2013-06-20 20:12:00,93.2,28.6,29.84,North,0,1.8,5.4,5,0.00,,,0.00,WUHU216HW,2013-06-21 03:12:00,
2013-06-20 20:17:00,92.7,28.3,29.84,NNW,338,2.7,5.4,6,0.00,,,0.00,WUHU216HW,2013-06-21 03:17:00,
2013-06-20 20:22:00,92.3,28.0,29.84,NW,315,4.7,4.7,6,0.00,,,0.00,WUHU216HW,2013-06-21 03:22:00,
2013-06-20 20:27:00,92.2,27.9,29.84,NNW,338,2.5,5.4,6,0.00,,,0.00,WUHU216HW,2013-06-21 03:27:00,
2013-06-20 20:32:00,91.8,27.6,29.83,NW,315,3.8,5.4,6,0.00,,,0.00,WUHU216HW,2013-06-21 03:32:00,
2013-06-20 20:37:00,91.6,27.5,29.83,NW,315,4.0,4.5,6,0.00,,,0.00,WUHU216HW,2013-06-21 03:37:00,
2013-06-20 20:42:00,91.4,27.4,29.83,NNW,338,4.7,5.4,6,0.00,,,0.00,WUHU216HW,2013-06-21 03:42:00,
2013-06-20 20:47:00,91.1,27.1,29.83,North,0,4.0,5.4,6,0.00,,,0.00,WUHU216HW,2013-06-21 03:47:00,
2013-06-20 20:52:00,90.7,26.8,29.84,NW,315,5.8,5.8,7,0.00,,,0.00,WUHU216HW,2013-06-21 03:52:00,
2013-06-20 20:57:00,90.5,26.6,29.85,WNW,293,3.8,5.8,7,0.00,,,0.00,WUHU216HW,2013-06-21 03:57:00,
2013-06-20 21:01:00,90.4,26.5,29.85,WNW,293,2.9,5.8,7,0.00,,,0.00,WUHU216HW,2013-06-21 04:01:00,
2013-06-20 21:06:00,90.2,26.4,29.86,North,0,3.8,5.4,8,0.00,,,0.00,WUHU216HW,2013-06-21 04:06:00,
2013-06-20 21:11:00,90.0,26.2,29.86,NW,315,4.0,6.7,8,0.00,,,0.00,WUHU216HW,2013-06-21 04:11:00,
2013-06-20 21:16:00,89.6,25.9,29.87,NW,315,7.2,8.5,8,0.00,,,0.00,WUHU216HW,2013-06-21 04:16:00,
2013-06-20 21:21:00,89.6,25.9,29.87,NNW,338,5.8,9.4,9,0.00,,,0.00,WUHU216HW,2013-06-21 04:21:00,
2013-06-20 21:26:00,89.6,25.9,29.87,North,0,6.5,9.4,9,0.00,,,0.00,WUHU216HW,2013-06-21 04:26:00,
2013-06-20 21:31:00,89.5,25.8,29.87,NW,315,4.5,8.5,8,0.00,,,0.00,WUHU216HW,2013-06-21 04:31:00,
2013-06-20 21:36:00,89.3,25.7,29.86,WNW,293,7.2,9.6,8,0.00,,,0.00,WUHU216HW,2013-06-21 04:36:00,
2013-06-20 21:41:00,89.1,25.6,29.86,NW,315,3.4,9.6,8,0.00,,,0.00,WUHU216HW,2013-06-21 04:41:00,
2013-06-20 21:46:00,88.7,25.3,29.86,WNW,293,8.1,8.9,8,0.00,,,0.00,WUHU216HW,2013-06-21 04:46:00,
2013-06-20 21:51:00,88.6,25.2,29.86,NNW,338,6.7,8.9,8,0.00,,,0.00,WUHU216HW,2013-06-21 04:51:00,
2013-06-20 21:56:00,88.6,25.2,29.86,West,270,5.1,8.5,8,0.00,,,0.00,WUHU216HW,2013-06-21 04:56:00,
2013-06-20 22:01:00,88.4,25.0,29.87,NW,315,7.6,8.5,8,0.00,,,0.00,WUHU216HW,2013-06-21 05:01:00,
2013-06-20 22:06:00,88.4,25.0,29.87,NNE,23,6.0,9.2,8,0.00,,,0.00,WUHU216HW,2013-06-21 05:06:00,
2013-06-20 22:11:00,88.4,25.0,29.88,NW,315,6.7,9.2,8,0.00,,,0.00,WUHU216HW,2013-06-21 05:11:00,
2013-06-20 22:16:00,88.2,24.9,29.88,North,0,4.7,11.0,7,0.00,,,0.00,WUHU216HW,2013-06-21 05:16:00,
2013-06-20 22:21:00,88.2,24.9,29.88,North,0,5.1,11.0,7,0.00,,,0.00,WUHU216HW,2013-06-21 05:21:00,
2013-06-20 22:26:00,88.2,24.9,29.88,NW,315,7.8,9.2,7,0.00,,,0.00,WUHU216HW,2013-06-21 05:26:00,
2013-06-20 22:31:00,88.2,24.9,29.88,West,270,6.5,8.5,7,0.00,,,0.00,WUHU216HW,2013-06-21 05:31:00,
2013-06-20 22:36:00,88.0,24.8,29.88,West,270,3.4,7.8,7,0.00,,,0.00,WUHU216HW,2013-06-21 05:36:00,
2013-06-20 22:41:00,87.8,24.7,29.87,North,0,3.8,8.7,7,0.00,,,0.00,WUHU216HW,2013-06-21 05:41:00,
2013-06-20 22:46:00,87.8,24.7,29.86,NNW,338,5.8,8.7,8,0.00,,,0.00,WUHU216HW,2013-06-21 05:46:00,
2013-06-20 22:51:00,87.8,24.7,29.86,NNW,338,2.2,9.8,7,0.00,,,0.00,WUHU216HW,2013-06-21 05:51:00,
2013-06-20 22:56:00,87.7,24.5,29.87,NW,315,3.6,9.8,8,0.00,,,0.00,WUHU216HW,2013-06-21 05:56:00,
2013-06-20 23:01:00,87.5,24.4,29.87,NNW,338,3.6,6.9,8,0.00,,,0.00,WUHU216HW,2013-06-21 06:01:00,
2013-06-20 23:06:00,87.3,24.2,29.88,NW,315,2.5,6.9,8,0.00,,,0.00,WUHU216HW,2013-06-21 06:06:00,
2013-06-20 23:11:00,87.1,24.1,29.88,NNW,338,2.7,4.5,8,0.00,,,0.00,WUHU216HW,2013-06-21 06:11:00,
2013-06-20 23:16:00,86.8,23.8,29.88,North,0,4.5,6.5,9,0.00,,,0.00,WUHU216HW,2013-06-21 06:16:00,
2013-06-20 23:21:00,86.8,23.8,29.88,West,270,5.4,6.5,10,0.00,,,0.00,WUHU216HW,2013-06-21 06:21:00,
2013-06-20 23:26:00,86.8,23.8,29.88,NW,315,5.1,5.4,10,0.00,,,0.00,WUHU216HW,2013-06-21 06:26:00,
2013-06-20 23:31:00,86.6,23.7,29.88,WNW,293,3.6,6.0,10,0.00,,,0.00,WUHU216HW,2013-06-21 06:31:00,
2013-06-20 23:36:00,86.4,25.2,29.89,NNW,338,3.8,8.5,11,0.00,,,0.00,WUHU216HW,2013-06-21 06:36:00,
2013-06-20 23:41:00,86.2,26.8,29.88,NW,315,7.4,9.2,12,0.00,,,0.00,WUHU216HW,2013-06-21 06:41:00,
2013-06-20 23:46:00,86.4,26.9,29.88,NNE,23,4.5,10.3,12,0.00,,,0.00,WUHU216HW,2013-06-21 06:46:00,
2013-06-20 23:51:00,86.2,26.8,29.87,NNW,338,2.9,10.3,12,0.00,,,0.00,WUHU216HW,2013-06-21 06:51:00,
2013-06-20 23:56:00,86.0,28.4,29.87,NW,315,6.5,8.1,13,0.00,,,0.00,WUHU216HW,2013-06-21 06:56:00,